{"data":{"norad_id":58935,"epoch":"2026-05-25T04:05:20.054400Z","epoch_age_seconds":70771,"freshness":"FRESH","line1":"1 58935U 24027E   26145.17037100  .00000375  00000+0  24795-4 0  9997","line2":"2 58935  53.1613 314.6781 0001192  94.0972 266.0165 15.30199376129030","mean_motion":15.30199376,"eccentricity":0.0001192,"inclination_deg":53.1613,"raan_deg":314.6781,"arg_perigee_deg":94.0972,"mean_anomaly_deg":266.0165,"bstar":2.4795e-5,"rev_number":12903,"period_min":94.105384081662,"perigee_km":474.40001278272,"apogee_km":476.03385236024,"semimajor_km":6853.3539325715,"source":"CELESTRAK","updated_at":"2026-05-25T13:38:18.788846Z"}}